TimeEDT,TemperatureF,Dew PointF,Humidity,Sea Level PressureIn,VisibilityMPH,Wind Direction,Wind SpeedMPH,Gust SpeedMPH,PrecipitationIn,Events,Conditions,WindDirDegrees,DateUTC
12:52 AM,61.0,54.0,78,30.17,10.0,SSW,4.6,-,N/A,,Clear,200,2012-09-26 04:52:00
1:52 AM,61.0,54.0,78,30.17,10.0,SSW,9.2,-,N/A,,Clear,210,2012-09-26 05:52:00
2:52 AM,61.0,53.1,75,30.15,10.0,SSW,5.8,-,N/A,,Clear,210,2012-09-26 06:52:00
4:52 AM,61.0,54.0,78,30.15,10.0,SW,6.9,-,N/A,,Clear,220,2012-09-26 08:52:00
5:52 AM,62.1,55.0,78,30.14,10.0,South,4.6,-,N/A,,Clear,180,2012-09-26 09:52:00
6:52 AM,63.0,55.0,75,30.14,10.0,SSW,4.6,-,N/A,,Overcast,200,2012-09-26 10:52:00
7:52 AM,63.0,55.9,78,30.14,10.0,SSW,5.8,-,0.00,Rain,Light Rain,200,2012-09-26 11:52:00
8:52 AM,66.9,59.0,76,30.13,10.0,SSW,10.4,-,0.00,,Partly Cloudy,200,2012-09-26 12:52:00
9:52 AM,70.0,59.0,68,30.13,10.0,SSW,11.5,21.9,N/A,,Clear,210,2012-09-26 13:52:00
10:52 AM,71.1,59.0,66,30.11,10.0,SSW,20.7,27.6,N/A,,Scattered Clouds,210,2012-09-26 14:52:00
12:52 PM,71.1,59.0,66,30.09,10.0,SSW,18.4,33.4,N/A,,Overcast,210,2012-09-26 16:52:00
1:00 PM,71.6,59.0,64,30.08,10.0,SSW,16.1,27.6,N/A,,Overcast,210,2012-09-26 17:00:00
1:12 PM,69.8,60.8,73,30.08,10.0,SSW,15.0,27.6,N/A,,Overcast,210,2012-09-26 17:12:00
1:52 PM,70.0,60.1,71,30.07,10.0,SW,17.3,28.8,N/A,,Overcast,220,2012-09-26 17:52:00
2:22 PM,69.8,60.8,73,30.07,10.0,SW,18.4,31.1,N/A,,Overcast,220,2012-09-26 18:22:00
2:31 PM,71.6,60.8,69,30.07,10.0,SW,19.6,31.1,N/A,,Overcast,220,2012-09-26 18:31:00
2:42 PM,71.6,60.8,69,30.06,10.0,SSW,16.1,25.3,N/A,,Overcast,210,2012-09-26 18:42:00
2:52 PM,70.0,61.0,73,30.06,10.0,SSW,16.1,26.5,N/A,,Overcast,210,2012-09-26 18:52:00
3:52 PM,68.0,62.1,81,30.05,10.0,SSW,9.2,18.4,0.00,,Overcast,210,2012-09-26 19:52:00
4:29 PM,69.8,60.8,73,30.04,10.0,SW,18.4,26.5,N/A,,Overcast,220,2012-09-26 20:29:00
4:47 PM,69.8,60.8,73,30.03,10.0,SW,17.3,28.8,N/A,,Overcast,220,2012-09-26 20:47:00
4:52 PM,70.0,61.0,73,30.04,10.0,SW,16.1,28.8,N/A,,Mostly Cloudy,220,2012-09-26 20:52:00
5:35 PM,69.8,60.8,73,30.04,10.0,SW,18.4,25.3,N/A,,Overcast,220,2012-09-26 21:35:00
5:52 PM,69.1,61.0,75,30.04,10.0,SW,13.8,-,N/A,,Overcast,220,2012-09-26 21:52:00
6:52 PM,69.1,62.1,78,30.05,10.0,SW,15.0,23.0,N/A,,Overcast,220,2012-09-26 22:52:00
7:34 PM,68.0,62.6,83,30.04,10.0,SW,12.7,-,N/A,,Mostly Cloudy,220,2012-09-26 23:34:00
8:52 PM,68.0,62.1,81,30.05,10.0,SW,12.7,-,N/A,,Overcast,220,2012-09-27 00:52:00
9:52 PM,68.0,63.0,84,30.05,10.0,SSW,11.5,-,N/A,,Overcast,210,2012-09-27 01:52:00
10:44 PM,66.2,62.6,88,30.04,10.0,SW,9.2,-,N/A,,Overcast,220,2012-09-27 02:44:00
10:52 PM,66.9,63.0,87,30.04,10.0,SW,9.2,-,N/A,,Overcast,220,2012-09-27 02:52:00
11:03 PM,66.2,62.6,88,30.04,10.0,SW,9.2,-,N/A,,Overcast,220,2012-09-27 03:03:00
11:37 PM,66.2,62.6,88,30.03,9.0,SW,8.1,-,N/A,,Overcast,220,2012-09-27 03:37:00
11:50 PM,66.2,62.6,88,30.03,9.0,SSW,8.1,-,N/A,,Overcast,210,2012-09-27 03:50:00
11:52 PM,66.9,63.0,87,30.03,9.0,SSW,9.2,-,N/A,,Overcast,210,2012-09-27 03:52:00